Time,TemperatureF,DewpointF,PressureIn,WindDirection,WindDirectionDegrees,WindSpeedMPH,WindSpeedGustMPH,Humidity,HourlyPrecipIn,Conditions,Clouds,dailyrainin,SolarRadiationWatts/m^2,SoftwareType,DateUTC
2013-11-13 00:03:00,27.0,12.0,-100.00,North,10,7.0,10.0,52,0.00,,,0.00,0.000000,,2013-11-13 06:03:00,
2013-11-13 00:42:00,26.0,11.0,-100.00,North,352,7.0,11.0,53,0.00,,,0.00,0.000000,,2013-11-13 06:42:00,
2013-11-13 00:52:00,26.0,11.0,-100.00,North,352,7.0,11.0,53,0.00,,,0.00,0.000000,,2013-11-13 06:52:00,
2013-11-13 01:02:00,26.0,11.0,-100.00,North,352,7.0,11.0,53,0.00,,,0.00,0.000000,,2013-11-13 07:02:00,
2013-11-13 01:42:00,25.0,12.0,-100.00,NNE,15,6.0,11.0,56,0.00,,,0.00,0.000000,,2013-11-13 07:42:00,
2013-11-13 01:52:00,25.0,12.0,-100.00,NNE,15,6.0,11.0,56,0.00,,,0.00,0.000000,,2013-11-13 07:52:00,
2013-11-13 02:02:00,25.0,12.0,-100.00,NNE,15,6.0,11.0,56,0.00,,,0.00,0.000000,,2013-11-13 08:02:00,
2013-11-13 02:42:00,25.0,11.0,-100.00,NNE,27,6.0,12.0,54,0.00,,,0.00,0.000000,,2013-11-13 08:42:00,
2013-11-13 02:52:00,25.0,11.0,-100.00,NNE,27,6.0,12.0,54,0.00,,,0.00,0.000000,,2013-11-13 08:52:00,
2013-11-13 03:03:00,25.0,11.0,-100.00,NNE,27,6.0,12.0,54,0.00,,,0.00,0.000000,,2013-11-13 09:03:00,
2013-11-13 03:43:00,24.0,10.0,-100.00,North,3,6.0,10.0,54,0.00,,,0.00,0.000000,,2013-11-13 09:43:00,
2013-11-13 04:42:00,25.0,11.0,-100.00,NNE,27,6.0,9.0,54,0.00,,,0.00,0.000000,,2013-11-13 10:42:00,
2013-11-13 04:52:00,25.0,11.0,-100.00,NNE,27,6.0,9.0,54,0.00,,,0.00,0.000000,,2013-11-13 10:52:00,
2013-11-13 05:02:00,25.0,11.0,-100.00,NNE,27,6.0,9.0,54,0.00,,,0.00,0.000000,,2013-11-13 11:02:00,
2013-11-13 06:42:00,24.0,10.0,-100.00,East,99,4.0,8.0,55,0.00,,,0.00,0.000000,,2013-11-13 12:42:00,
2013-11-13 06:52:00,24.0,10.0,-100.00,East,99,4.0,8.0,55,0.00,,,0.00,0.000000,,2013-11-13 12:52:00,
2013-11-13 07:01:00,24.0,10.0,-100.00,East,99,4.0,8.0,55,0.00,,,0.00,0.000000,,2013-11-13 13:01:00,
2013-11-13 07:42:00,25.0,11.0,-100.00,ESE,122,6.0,6.0,55,0.00,,,0.00,4.000000,,2013-11-13 13:42:00,
2013-11-13 07:52:00,25.0,11.0,-100.00,ESE,122,6.0,6.0,55,0.00,,,0.00,4.000000,,2013-11-13 13:52:00,
2013-11-13 08:02:00,25.0,11.0,-100.00,ESE,122,6.0,6.0,55,0.00,,,0.00,4.000000,,2013-11-13 14:02:00,
2013-11-13 08:42:00,28.0,11.0,-100.00,SE,141,8.0,10.0,49,0.00,,,0.00,110.000000,,2013-11-13 14:42:00,
2013-11-13 08:53:00,28.0,11.0,-100.00,SE,141,8.0,10.0,49,0.00,,,0.00,110.000000,,2013-11-13 14:53:00,
2013-11-13 09:02:00,28.0,11.0,-100.00,SE,141,8.0,10.0,49,0.00,,,0.00,110.000000,,2013-11-13 15:02:00,
2013-11-13 09:43:00,30.0,12.0,-100.00,SSE,168,8.0,11.0,47,0.00,,,0.00,326.000000,,2013-11-13 15:43:00,
2013-11-13 09:53:00,30.0,12.0,-100.00,SSE,168,8.0,11.0,47,0.00,,,0.00,326.000000,,2013-11-13 15:53:00,
2013-11-13 10:03:00,30.0,12.0,-100.00,SSE,168,8.0,11.0,47,0.00,,,0.00,326.000000,,2013-11-13 16:03:00,
2013-11-13 10:43:00,31.0,14.0,-100.00,South,169,8.0,12.0,49,0.00,,,0.00,518.000000,,2013-11-13 16:43:00,
2013-11-13 10:53:00,31.0,14.0,-100.00,South,169,8.0,12.0,49,0.00,,,0.00,518.000000,,2013-11-13 16:53:00,
2013-11-13 11:02:00,31.0,14.0,-100.00,South,169,8.0,12.0,49,0.00,,,0.00,518.000000,,2013-11-13 17:02:00,
2013-11-13 11:42:00,35.0,16.0,-100.00,SSE,163,5.0,13.0,45,0.00,,,0.00,660.000000,,2013-11-13 17:42:00,
2013-11-13 11:52:00,35.0,16.0,-100.00,SSE,163,5.0,13.0,45,0.00,,,0.00,660.000000,,2013-11-13 17:52:00,
2013-11-13 12:02:00,35.0,16.0,-100.00,SSE,163,5.0,13.0,45,0.00,,,0.00,660.000000,,2013-11-13 18:02:00,
2013-11-13 12:42:00,38.0,18.0,-100.00,South,171,5.0,10.0,43,0.00,,,0.00,739.000000,,2013-11-13 18:42:00,
2013-11-13 12:52:00,38.0,18.0,-100.00,South,171,5.0,10.0,43,0.00,,,0.00,739.000000,,2013-11-13 18:52:00,
2013-11-13 13:02:00,38.0,18.0,-100.00,South,171,5.0,10.0,43,0.00,,,0.00,739.000000,,2013-11-13 19:02:00,
2013-11-13 13:42:00,40.0,18.0,-100.00,SE,137,5.0,11.0,40,0.00,,,0.00,743.000000,,2013-11-13 19:42:00,
2013-11-13 13:52:00,40.0,18.0,-100.00,SE,137,5.0,11.0,40,0.00,,,0.00,743.000000,,2013-11-13 19:52:00,
2013-11-13 14:02:00,40.0,18.0,-100.00,SE,137,5.0,11.0,40,0.00,,,0.00,743.000000,,2013-11-13 20:02:00,
2013-11-13 14:42:00,42.0,18.0,-100.00,SSE,154,5.0,10.0,37,0.00,,,0.00,671.000000,,2013-11-13 20:42:00,
2013-11-13 14:52:00,42.0,18.0,-100.00,SSE,154,5.0,10.0,37,0.00,,,0.00,671.000000,,2013-11-13 20:52:00,
2013-11-13 15:01:00,42.0,18.0,-100.00,SSE,154,5.0,10.0,37,0.00,,,0.00,671.000000,,2013-11-13 21:01:00,
2013-11-13 15:43:00,42.0,17.0,-100.00,South,173,6.0,9.0,36,0.00,,,0.00,532.000000,,2013-11-13 21:43:00,
2013-11-13 15:53:00,42.0,17.0,-100.00,South,173,6.0,9.0,36,0.00,,,0.00,532.000000,,2013-11-13 21:53:00,
2013-11-13 16:03:00,42.0,17.0,-100.00,South,173,6.0,9.0,36,0.00,,,0.00,532.000000,,2013-11-13 22:03:00,
2013-11-13 16:42:00,41.0,14.0,-100.00,SSE,161,5.0,9.0,33,0.00,,,0.00,340.000000,,2013-11-13 22:42:00,
2013-11-13 16:53:00,41.0,14.0,-100.00,SSE,161,5.0,9.0,33,0.00,,,0.00,340.000000,,2013-11-13 22:53:00,
2013-11-13 17:02:00,41.0,14.0,-100.00,SSE,161,5.0,9.0,33,0.00,,,0.00,340.000000,,2013-11-13 23:02:00,
2013-11-13 17:43:00,36.0,13.0,-100.00,South,177,5.0,7.0,39,0.00,,,0.00,113.000000,,2013-11-13 23:43:00,
2013-11-13 17:53:00,36.0,13.0,-100.00,South,177,5.0,7.0,39,0.00,,,0.00,113.000000,,2013-11-13 23:53:00,
2013-11-13 18:02:00,36.0,13.0,-100.00,South,177,5.0,7.0,39,0.00,,,0.00,113.000000,,2013-11-14 00:02:00,
2013-11-13 18:42:00,34.0,14.0,-100.00,SSE,165,6.0,7.0,43,0.00,,,0.00,1.000000,,2013-11-14 00:42:00,
2013-11-13 18:52:00,34.0,14.0,-100.00,SSE,165,6.0,7.0,43,0.00,,,0.00,1.000000,,2013-11-14 00:52:00,
2013-11-13 19:02:00,34.0,14.0,-100.00,SSE,165,6.0,7.0,43,0.00,,,0.00,1.000000,,2013-11-14 01:02:00,
2013-11-13 19:42:00,34.0,15.0,-100.00,SSE,153,6.0,8.0,45,0.00,,,0.00,0.000000,,2013-11-14 01:42:00,
2013-11-13 19:52:00,34.0,15.0,-100.00,SSE,153,6.0,8.0,45,0.00,,,0.00,0.000000,,2013-11-14 01:52:00,
2013-11-13 20:01:00,34.0,15.0,-100.00,SSE,153,6.0,8.0,45,0.00,,,0.00,0.000000,,2013-11-14 02:01:00,
2013-11-13 20:53:00,34.0,17.0,-100.00,SSE,160,7.0,9.0,49,0.00,,,0.00,0.000000,,2013-11-14 02:53:00,
2013-11-13 21:02:00,34.0,17.0,-100.00,SSE,160,7.0,9.0,49,0.00,,,0.00,0.000000,,2013-11-14 03:02:00,
2013-11-13 21:44:00,34.0,16.0,-100.00,SSE,161,8.0,12.0,47,0.00,,,0.00,0.000000,,2013-11-14 03:44:00,
2013-11-13 21:54:00,34.0,16.0,-100.00,SSE,161,8.0,12.0,47,0.00,,,0.00,0.000000,,2013-11-14 03:54:00,
2013-11-13 22:03:00,34.0,16.0,-100.00,SSE,161,8.0,12.0,47,0.00,,,0.00,0.000000,,2013-11-14 04:03:00,
2013-11-13 22:43:00,33.0,16.0,-100.00,SSE,166,8.0,11.0,49,0.00,,,0.00,0.000000,,2013-11-14 04:43:00,
2013-11-13 22:54:00,33.0,16.0,-100.00,SSE,166,8.0,11.0,49,0.00,,,0.00,0.000000,,2013-11-14 04:54:00,
2013-11-13 23:03:00,33.0,16.0,-100.00,SSE,166,8.0,11.0,49,0.00,,,0.00,0.000000,,2013-11-14 05:03:00,
2013-11-13 23:44:00,32.0,15.0,-100.00,SSE,164,7.0,12.0,49,0.00,,,0.00,0.000000,,2013-11-14 05:44:00,
2013-11-13 23:53:00,32.0,15.0,-100.00,SSE,164,7.0,12.0,49,0.00,,,0.00,0.000000,,2013-11-14 05:53:00,